loading
|

ATLAS D DEB, 2337

Orbit data source: Space-Track

ATLAS D DEB, 2337 is space debris in LEO originally from a launch on Thu, 14 Jul 1966 UTC launched from the Air Force Western Test Range (AFWTR). Debris objects in space refer to the collection of defunct objects orbiting the Earth. Examples of debris include non-operational satellites, rocket bodies, and fragments generated from explosions, collisions, or faulty payload assembly.

Loading next visibility...
Loading greatness...
ATLAS D DEB details
Identifier
2337, 1966-063E
Orbit
LEO
Last TLE update20 hours ago
Origin
Flag of USUSAF OAR (US)
ManufacturerUnknown
MissionSpacecraft
Bus & MotorUnknown bus, Unknown motor
Mass9 kg wet, 9 kg dry
Launch date (UTC)
1966-07-14 (58 years ago)
Launch vehicleUnknown
Launch site
Air Force Western Test Range (AFWTR)
Object type
Payload
Rocket body
Debris
Shape & HBRTrunc Cone, 0.7 m
Radar Cross Section0.700 m², Medium (>0.1 m² and < 1m²)

Expand to show TLE details & history

TLE from 20 hours ago
0 ATLAS D DEB
1 02337U 66063E   24280.88110980  .00000743  00000-0  53665-3 0  9999
2 02337 144.2321  50.3292 0004957  79.2560  73.9740 13.72097255917108
Epoch: 2024-10-06T21:08Z
Definitive object data (Epoch: 2024-10-06T21:08:47.886Z)
Latitude15.28067°
Longitude-80.72118°
Altitude989.411 km
Speed7.361 km/s
True Right ascension16h 49m 58s
True Declination15° 11' 46"
Sunlit
Object was in daylight at TLE epoch
Predictive object data (real-time)
Latitude-34.93178°
Longitude-173.56926°
Altitude1,004.997 km
Speed7.348 km/s
Apparent Right ascension09h 18m 10s
Apparent Declination-81° 22' 32"
Sunlit
Object is in daylight
Predictive observer data (real-time)
Local Sidereal Time10:58:48
Azimuth184.312° SSW
Elevation-32.026°
Doppler factor1
Orbital elements
Apogee998.625 km
Perigee991.315 km
Semi-major axis7,373.107 km
Eccentricity0.0004957
Inclination144.2321°
RAAN50.3292°
Arg. of periapsis79.256°
True anomaly74.0286°
Mean anomaly73.974°
Eccentric anomaly74.0013°
Mean motion3.42821 °/min
BSTAR0.00053665
Period105.01 mins
No data available
No data available

ATLAS D DEB Visibility forecast

Observer location: 39.9160978°, -105.1181434

ATLAS D DEB is not visible in the next 10 days
Span
Click to sort rows by Start time (UTC) header in descending order
Start Az.
Max El. time (UTC)
Max El. Az.
Max El.
End time (UTC)
End Az.